Santa Ana, CA

8:24 AM PST on November 12, 2019 (GMT -0800)
John Wayne-Orange County

Weather History for KSNA - September, 2019

Change the Weather History Date:

Tuesday, September 17, 2019

  Actual Average Record
Temperature  
Mean Temperature 73 °F 72 °F  
Max Temperature 80 °F 79 °F 94 °F (2014)
Min Temperature 66 °F 64 °F 59 °F (2006)
Degree Days  
Heating Degree Days 0 0  
Month to date heating degree days 0 0  
Since 1 July heating degree days 0 0  
Cooling Degree Days 8 7  
Month to date cooling degree days 213 127  
Year to date cooling degree days 890 698  
Growing Degree Days 22 (Base 50)    
Moisture  
Dew Point 61 °F    
Average Humidity 66    
Maximum Humidity 78    
Minimum Humidity 54    
Precipitation  
Precipitation 0.00 in 0.01 in 0.98 in (1963)
Month to date precipitation 0.00 0.10  
Year to date precipitation 12.51 9.13  
Sea Level Pressure  
Sea Level Pressure 29.92 in    
Wind  
Wind Speed 5 mph (South)    
Max Wind Speed 12 mph    
Max Gust Speed 20 mph    
Visibility 10 miles    
Events      
T = Trace of Precipitation, MM = Missing Value Source: NWS Daily Summary

Daily Weather History Graph

Daily Weather History Graph

Search for Another Location

Airport or City:

Astronomy

Sep. 17, 2019 Rise Set
Actual Time 6:36 AM PDT 6:55 PM PDT
Civil Twilight 6:11 AM PDT 7:20 PM PDT
Nautical Twilight 5:41 AM PDT 7:49 PM PDT
Astronomical Twilight 5:12 AM PDT 8:18 PM PDT
Moon 9:09 PM PDT (9/17) 9:37 AM PDT (9/17)
Length of Visible Light 13h 09m
Length of Day
12h 19m
Waning Gibbous, 88% of the Moon is Illuminated
Sep 17
Waning Gibbous
Sep 21
Last Quarter
Sep 28
New
Oct 5
First Quarter
Oct 13
Full

Hourly Weather History & Observations

Time (PDT) Temp. Dew Point Humidity Pressure Visibility Wind Dir Wind Speed Gust Speed Precip Events Conditions
12:53 AM 69.1 °F 61.0 °F 75% 29.91 in 10.0 mi SSE 5.8 mph - N/A   Clear
1:53 AM 68.0 °F 61.0 °F 78% 29.91 in 10.0 mi Calm Calm - N/A   Clear
2:46 AM 69.1 °F 61.0 °F 75% 29.91 in 10.0 mi Calm Calm - N/A   Mostly Cloudy
2:53 AM 69.1 °F 61.0 °F 75% 29.91 in 10.0 mi Calm Calm - N/A   Mostly Cloudy
3:53 AM 70.0 °F 61.0 °F 73% 29.91 in 10.0 mi Calm Calm - N/A   Mostly Cloudy
4:15 AM 66.9 °F 60.1 °F 79% 29.92 in 10.0 mi ESE 4.6 mph - N/A   Scattered Clouds
4:53 AM 66.0 °F 59.0 °F 78% 29.91 in 10.0 mi East 4.6 mph - N/A   Clear
5:29 AM 68.0 °F 60.1 °F 76% 29.93 in 10.0 mi Calm Calm - N/A   Mostly Cloudy
5:53 AM 68.0 °F 60.1 °F 76% 29.94 in 10.0 mi NE 3.5 mph - N/A   Mostly Cloudy
6:32 AM 66.9 °F 59.0 °F 76% 29.94 in 10.0 mi East 5.8 mph - N/A   Partly Cloudy
6:53 AM 66.9 °F 59.0 °F 76% 29.94 in 10.0 mi East 5.8 mph - N/A   Partly Cloudy
7:53 AM 69.1 °F 60.1 °F 73% 29.96 in 9.0 mi Variable 5.8 mph - N/A   Partly Cloudy
8:53 AM 72.0 °F 60.1 °F 66% 29.98 in 10.0 mi East 4.6 mph - N/A   Partly Cloudy
9:53 AM 73.9 °F 59.0 °F 59% 29.97 in 10.0 mi SE 4.6 mph - N/A   Partly Cloudy
10:53 AM 75.9 °F 61.0 °F 60% 29.97 in 10.0 mi SW 9.2 mph - N/A   Partly Cloudy
11:53 AM 75.9 °F 61.0 °F 60% 29.96 in 10.0 mi SSW 11.5 mph - N/A   Partly Cloudy
12:53 PM 78.1 °F 61.0 °F 56% 29.95 in 10.0 mi SSW 9.2 mph - N/A   Partly Cloudy
1:53 PM 78.1 °F 61.0 °F 56% 29.93 in 10.0 mi SSW 11.5 mph - N/A   Partly Cloudy
2:53 PM 79.0 °F 62.1 °F 56% 29.92 in 10.0 mi SSW 10.4 mph 19.6 mph N/A   Clear
3:53 PM 79.0 °F 61.0 °F 54% 29.89 in 10.0 mi SW 6.9 mph - N/A   Clear
4:53 PM 78.1 °F 62.1 °F 58% 29.89 in 10.0 mi SW 8.1 mph - N/A   Clear
5:53 PM 75.9 °F 63.0 °F 64% 29.88 in 10.0 mi SW 8.1 mph - N/A   Partly Cloudy
6:53 PM 73.0 °F 63.0 °F 71% 29.88 in 10.0 mi SW 8.1 mph - N/A   Partly Cloudy
7:53 PM 72.0 °F 63.0 °F 73% 29.89 in 9.0 mi SSW 5.8 mph - N/A   Partly Cloudy
8:53 PM 72.0 °F 63.0 °F 73% 29.90 in 9.0 mi Calm Calm - N/A   Partly Cloudy
9:53 PM 71.1 °F 63.0 °F 75% 29.90 in 8.0 mi Calm Calm - N/A   Partly Cloudy
10:53 PM 71.1 °F 63.0 °F 75% 29.90 in 10.0 mi SW 3.5 mph - N/A   Clear
11:53 PM 70.0 °F 62.1 °F 76% 29.90 in 10.0 mi Calm Calm - N/A   Clear